{"data":{"norad_id":50842,"epoch":"2026-05-24T20:27:04.021632Z","epoch_age_seconds":101913,"freshness":"FRESH","line1":"1 50842U 22001AR  26144.85212988 -.00000009  00000+0  17514-4 0  9995","line2":"2 50842  53.2132 197.2147 0001040  81.0620 279.0490 15.08835568241759","mean_motion":15.08835568,"eccentricity":0.000104,"inclination_deg":53.2132,"raan_deg":197.2147,"arg_perigee_deg":81.062,"mean_anomaly_deg":279.049,"bstar":1.7514e-5,"rev_number":24175,"period_min":95.437835012649,"perigee_km":539.03747487889,"apogee_km":540.47639681754,"semimajor_km":6917.8939358482,"source":"CELESTRAK","updated_at":"2026-05-25T13:38:16.881942Z"}}